Skip Page Navigation
NASA JPL Caltech
NASA Logo - Jet Propulsion Laboratory + View the NASA Portal
+ Near-Earth Object (NEO) Program
Search JPL
JPL Home Earth Solar System Stars & Galaxies Technology
JPL Solar System Dynamics
BODIES ORBITS EPHEMERIDES TOOLS PHYSICAL DATA DISCOVERY FAQ SITE MAP
JPL Small-Body Database Browser
Search: [ help ]  
(2006 KD40)
Classification: Apollo [NEO, PHA]          SPK-ID: 3334436
Ephemeris | Orbit Diagram | Orbital Elements | Physical Parameters | Close-Approach Data ]

[ hide orbit diagram ]
Orbit Diagram
Note: Make sure you have Java enabled on your browser to see the applet. This applet is provided as a 3D orbit visualization tool. The applet was implemented using 2-body methods, and hence should not be used for determining accurate long-term trajectories (over several years or decades) or planetary encounter circumstances. For accurate long-term ephemerides, please instead use our Horizons system.
Orbit Viewer

Additional Notes: the orbits shown in the applet are color coded. The planets are white lines, and the asteroid/comet is a blue line. The bright white line indicates the portion of the orbit that is above the ecliptic plane, and the darker portion is below the ecliptic plane. Likewise for the asteroid/comet orbit, the light blue indicates the portion above the ecliptic plane, and the dark blue the portion below the ecliptic plane.

Orbit Viewer applet originally written and kindly provided by Osamu Ajiki (AstroArts), and further modified by Ron Baalke (JPL).


Orbital Elements at Epoch 2456400.5 (2013-Apr-18.0) TDB
Reference: JPL 25 (heliocentric ecliptic J2000)
 Element Value Uncertainty (1-sigma)   Units 
e .5117492689342888 7.1311e-08  
a 2.018366802933177 1.7281e-07 AU
q .985469067090886 1.3431e-07 AU
i 21.11577758087196 2.2198e-05 deg
node 86.76761893728104 1.1136e-05 deg
peri 217.8483401624155 2.9739e-05 deg
M 128.70325745583 0.00010456 deg
tp 2456026.057094217687
(2012-Apr-08.55709422)
0.00025627 JED
period 1047.366234128882
2.87
0.00013451
3.683e-07
d
yr
n .3437193106568115 4.4144e-08 deg/d
Q 3.051264538775468 2.6125e-07 AU
  Orbit Determination Parameters
   # obs. used (total)      132  
   data-arc span      1343 days (3.68 yr)  
   first obs. used      2003-03-22  
   last obs. used      2006-11-24  
   planetary ephem.      DE405  
   SB-pert. ephem.      SB405-CPV-2  
   condition code      0  
   fit RMS      .47395  
   data source      ORB  
   producer      Otto Matic  
   solution date      2011-Sep-14 20:10:02  

Additional Information
 Earth MOID = .0385517 AU 
 T_jup = 3.576 
[ show covariance matrix ]

Ephemeris | Orbit Diagram | Orbital Elements | Physical Parameters | Close-Approach Data ]

Physical Parameter Table
Parameter Symbol Value Units Sigma Reference Notes
absolute magnitude H 18.535 mag .56565 25 autocmod 2.5a

[ show close-approach data ]
Ephemeris | Orbit Diagram | Orbital Elements | Physical Parameters | Close-Approach Data ]
ABOUT SSD CREDITS/AWARDS PRIVACY/COPYRIGHT GLOSSARY LINKS
FirstGov 2013-May-25 01:11 UT
(server date/time)  
NASA Home Page
Site Manager:   Donald K. Yeomans
Webmaster  Alan B. Chamberlin